Weather in Vchoraishe

Ukraine / Zhytomyr Region     49°51′48″N   29°08′56″E
temp.,
°C
wind,
m/s
gust,
m/s
humid.,
%
clouds,
%
prec.,
mm/h
press.,
hPa
HPBL,
m
16 april, fri
fri1600:00+6wnw5793100 1.3 1012403
03:00+5wnw4791100 1.4 1012389
06:00+5w4693100 0.1 1012436
09:00+4w4695100 0.3 1012435
12:00+6w4581100 0.1 1012711
15:00+7w557599 0.1 1013876
18:00+6w5673100 0.0 1013999
21:00+4w5787100 0.0 1015564
17 april, sat
sat1700:00+3w4795100 0.0 1016583
03:00+3w4588100 0.1 1017609
06:00+3wsw4789100 0.0 1017472
09:00+3wsw3595100 0.1 1019639
12:00+4wsw3388100 0.1 1019665
15:00+6w2276100 0.2 1020883
18:00+6nw1271100 0.0 1020728
21:00+6nw2271100 0.0 102040
18 april, sun
sun1800:00+5w2378100 0.0 102097
03:00+3wnw35885 0.0 101994
06:00+2wnw37954 0.0 1019143
09:00+7wnw46789 0.0 1018354
12:00+11wnw456479 0.0 1017898
15:00+12nnw556293 0.0 10171099
18:00+11n5576100 0.1 1017596
21:00+8ne5880100 0.1 1018450
19 april, mon
mon1900:00+6ne3683100 0.0 1018280
03:00+4nne3690100 0.0 1018207
06:00+3nne369299 0.0 1018167
09:00+7ene4872100 0.0 1017859
12:00+9ene4561100 0.0 10161311
15:00+10ne4560100 0.0 10151302
18:00+9ne5769100 0.0 10121053
21:00+7nne51078100 0.1 1011542
20 april, tue
tue2000:00+6nne61191100 0.1 1009442
03:00+5n81492100 0.1 1005490
06:00+5n81690100 0.1 1002547
09:00+5n91691100 1.7 999649
12:00+6nnw91493100 3.6 9981022
15:00+7nw91491100 5.4 9971280
18:00+7nw101690100 0.8 9981411
21:00+7wnw101590100 1.7 10011245